Regional Weather Roundup
Issued by NWS

Home | Current Version | Previous Version | Graphics & Text | Print | Product List | Glossary On
Versions: 1 2 3 4 5 6 7 8 9 10 11 12 13 14 15 16 17 18 19 20 21 22 23 24 25 26 27 28 29 30 31 32 33 34 35 36 37 38 39 40 41 42 43 44 45 46 47 48 49 50
000
ASUS43 KMPX 061910
RWRMN
WEATHER ROUNDUP FOR MINNESOTA
NATIONAL WEATHER SERVICE TWIN CITIES/CHANHASSEN MN
100 PM CST FRI MAR 06 2015


NOTE: "FAIR" INDICATES FEW OR NO CLOUDS BELOW 12,000 FEET WITH NO
SIGNIFICANT WEATHER AND/OR OBSTRUCTIONS TO VISIBILITY. N/A MEANS
CURRENT SKY AND/OR WEATHER CONDITIONS ARE NOT AVAILABLE.

MNZ060>063-068>070-062000-
   Twin Cities Metro

CITY           SKY/WX    TMP DP  RH WIND       PRES   REMARKS
TWIN CITIES    SUNNY     36  17  46 NW12      30.04F
ST PAUL        SUNNY     36  15  42 NW13      30.05F
CRYSTAL        SUNNY     34  18  52 W10       30.04S WCI  26
BLAINE         SUNNY     34  18  51 W7        30.04S WCI  28
LAKEVILLE      SUNNY     34  19  55 W10       30.04F WCI  26
EDEN PRAIRIE   SUNNY     35  18  49 W13       30.04S WCI  26
SOUTH ST PAUL  SUNNY     37  17  44 W7        30.04F
LAKE ELMO      FAIR      34  19  55 W9        30.04F WCI  26
$$
MNZ001>005-007-008-013>017-022>024-027-028-062000-
   Northwest Minnesota

CITY           SKY/WX    TMP DP  RH WIND       PRES   REMARKS
BEMIDJI        SUNNY     28  13  55 NW17      30.02S WCI  15
HALLOCK        SUNNY     30  19  64 SW9       30.03F WCI  22
ROSEAU         SUNNY     30  18  59 W9G16     30.00F WCI  22
WARROAD        SUNNY     27  16  63 SW13      29.99F WCI  16
THIEF RVR FALL SUNNY     27  18  69 SW10      30.05F WCI  17
CROOKSTON      SUNNY     30  18  59 W8        30.08S WCI  23
FOSSTON        SUNNY     28  16  59 W8        30.06S WCI  20
DETROIT LAKES  SUNNY     30  18  59 NW13G18   30.07S WCI  20
MOORHEAD       SUNNY     36  18  48 NW12      30.10S
PARK RAPIDS    SUNNY     30  13  49 NW16      30.02S WCI  19
MAHNOMEN       FAIR      29  17  60 NW10      30.06S WCI  20
$$
MNZ006-009>011-018-025>026-062000-
   North Central Minnesota

CITY           SKY/WX    TMP DP  RH WIND       PRES   REMARKS
BAUDETTE       SUNNY     27  12  53 W12       29.97S WCI  17
FLAG ISLAND    SUNNY     28  10  47 NW8       29.95S WCI  20
INTL FALLS     SUNNY     27   9  46 W17       29.96S WCI  14
WASKISH        SUNNY     30  18  59 SW10      30.00S WCI  21
BIG FORK       SUNNY     32  10  40 W5        29.97F WCI  27
LONGVILLE      SUNNY     30  10  43 NW9       30.01S WCI  22
GRAND RAPIDS   SUNNY     28  12  50 W14       29.97F WCI  17
CRANE LAKE     SUNNY     25   7  46 NW9       29.96S WCI  15
ORR            SUNNY     27   7  43 NW13      29.92F WCI  16
COOK           SUNNY     28  10  47 W17       29.94F WCI  16
WALKER         FAIR      30  11  45 W16       30.00F WCI  18
$$
MNZ012-019>021-037-062000-
   Northeast Minnesota

CITY           SKY/WX    TMP DP  RH WIND       PRES   REMARKS
DULUTH         SUNNY     29  11  47 NW16G23   29.94R WCI  17
ELY            SUNNY     28   9  43 W13G20    29.90S WCI  18
HIBBING        SUNNY     28  11  48 NW15      29.95S WCI  16
EVELETH        SUNNY     28  10  47 W14G20    29.95S WCI  17
DULUTH HARBOR  SUNNY     30  16  55 W13       29.99S WCI  20
TWO HARBORS    SUNNY     36  16  44 W7G18     29.92S
SILVER BAY     SUNNY     36  10  35 W7        29.89S
GRAND MARAIS     N/A     35  12  38 VRB6      29.88S WCI  30
G MARAIS ARPRT SUNNY     27   7  43 W9G20     29.82S WCI  17
$$
MNZ029>031-032-039>041-046>048-054>057-064-062000-
   West Central Minnesota

CITY           SKY/WX    TMP DP  RH WIND       PRES   REMARKS
FERGUS FALLS   SUNNY     30  14  51 NW9       30.12S WCI  22
WHEATON        SUNNY     28  18  64 W13       30.14S WCI  18
MORRIS         SUNNY     28  18  64 NW15      30.10S WCI  17
ALEXANDRIA     SUNNY     29  13  51 NW12      30.06F WCI  19
ELBOW LAKE     FAIR      28  17  63 NW8       30.09S WCI  20
WADENA         SUNNY     28  14  54 NW14      30.04F WCI  17
GLENWOOD       SUNNY     28  16  59 NW12      30.07F WCI  18
APPLETON       SUNNY     32  18  55 NW13      30.12S WCI  22
BENSON         MOSUNNY   30  19  64 N12G18    30.10S WCI  21
ORTONVILLE     SUNNY     30  16  55 NW13      30.11F WCI  20
MADISON        SUNNY     34  19  55 NW14      30.12S WCI  24
WILLMAR        FAIR      32  18  55 NW14      30.10S WCI  22
$$
MNZ033>034-036-042>043-049>051-058-059-062000-
   Central Minnesota

CITY           SKY/WX    TMP DP  RH WIND       PRES   REMARKS
ST CLOUD       SUNNY     32  14  47 N13       30.04S WCI  22
SAUK CENTRE    FAIR      30  15  53 NW15      30.06F WCI  19
PAYNESVILLE    SUNNY     29  15  57 W15       30.07S WCI  18
AITKIN         SUNNY     34  10  37 NW12      29.99S WCI  25
PINE RIVER     SUNNY     30  14  51 NW9       30.04F WCI  22
BRAINERD       SUNNY     31  11  43 NW10      30.02S WCI  22
STAPLES        SUNNY     30  12  47 NW17      30.04S WCI  18
LONG PRAIRIE   FAIR      32  16  51 NW10      30.05F WCI  24
LITTLE FALLS   SUNNY     32  12  43 W10       30.05S WCI  24
LITCHFIELD     SUNNY     34  16  47 NW14G20   30.06S WCI  24
BUFFALO        SUNNY     34  18  52 W10       30.05F WCI  26
MAPLE LAKE     SUNNY     34  19  54 W10       30.05F WCI  26
$$
MNZ037-044-045-052-053-062000-
   East Central Minnesota

CITY           SKY/WX    TMP DP  RH WIND       PRES   REMARKS
PRINCETON      SUNNY     32  18  55 W9        30.04F WCI  24
MORA           SUNNY     32  14  47 NW12      30.04S WCI  23
CAMBRIDGE      SUNNY     30  16  55 W9        30.01F WCI  22
RUSH CITY      SUNNY     30  14  49 W6        30.03S WCI  24
MOOSE LAKE     SUNNY     32  12  43 W12       29.98S WCI  23
HINCKLEY       FAIR      32  14  47 W7        30.01S WCI  26
CLOQUET        SUNNY     28  10  47 NW12G20   29.96S WCI  18
MCGREGOR       SUNNY     32  14  47 NW9       30.00S WCI  24
$$
MNZ071>073-080-081-089-090-097-098-062000-
   Southwest Minnesota

CITY           SKY/WX    TMP DP  RH WIND       PRES   REMARKS
MONTEVIDEO     SUNNY     34  21  60 N10       30.12S WCI  26
GRANITE FALLS  SUNNY     34  20  55 NW15      30.13R WCI  24
CANBY          SUNNY     35  20  55 NW10      30.13S WCI  27
MARSHALL       SUNNY     36  18  48 N18       30.12S
REDWOOD FALLS  SUNNY     36  20  52 NW14G20   30.09S
OLIVIA         SUNNY     34  21  60 NW15G23   30.08S WCI  24
PIPESTONE      SUNNY     36  23  60 NW10      30.10S
WINDOM         SUNNY     39  25  56 NW12      30.09S
WORTHINGTON    SUNNY     39  23  52 NW16      30.12R
JACKSON        SUNNY     43  27  52 NW13      30.09R
TRACY          SUNNY     38  24  56 NW14      30.10S
SLAYTON        SUNNY     39  22  51 NW5       30.10S
$$
MNZ065>067-074>077-082>085-091>093-062000-
   South Central Minnesota

CITY           SKY/WX    TMP DP  RH WIND       PRES   REMARKS
MANKATO        SUNNY     39  21  48 W15       30.06F
NEW ULM        SUNNY     37  21  52 NW13      30.08S
ST JAMES       SUNNY     41  23  48 W12       30.10S
FAIRMONT       SUNNY     43  25  49 W13       30.07F
GLENCOE        SUNNY     35  25  65 W12G18    30.06S WCI  27
FARIBAULT      SUNNY     37  21  52 SW10      30.06S
OWATONNA       SUNNY     37  21  52 W12       30.06S
WASECA         SUNNY     39  25  56 W14       30.07F
ALBERT LEA     SUNNY     37  23  56 SW9       30.06S
$$
MNZ078>079-086>088-094>096-062000-
   Southeast Minnesota

CITY           SKY/WX    TMP DP  RH WIND       PRES   REMARKS
ROCHESTER      SUNNY     27  19  72 S15       30.05F WCI  15
RED WING       SUNNY     34  16  47 CALM      30.05F
STANTON        SUNNY     36  20  52 W9        30.03F
DODGE CENTER   SUNNY     30  23  74 SW14      30.04F WCI  20
WINONA         SUNNY     30  16  55 SW8       30.11F WCI  23
AUSTIN         SUNNY     30  21  69 SW10      30.06F WCI  21
PRESTON        SUNNY     28  17  63 SW12      30.07F WCI  18
$$
ABBREVIATIONS USED IN REMARKS
   TC - TEMPERATURES IN CELSIUS
  WCI - WIND CHILL INDEX
   HX - HEAT INDEX
  VSB - VISIBILITY
$$



USA.gov is the U.S. government's official web portal to all federal, state and local government web resources and services.